Location: Carnoy
(49.9849°N, 2.7558°E)
Time: 22:41:48
(UTC+00:00)

Cosmos 1607 - Pass Details

Date: 24 January 2020
Orbit: 923 x 979 km, 65.0° (Epoch: 23 February)

Event Time Altitude Azimuth Distance (km) Brightness Sun altitude
Rises 16:52:18 0° 219° (SW) 3,558 8.3 -4.2°
Reaches altitude 10° 16:54:48 10° 220° (SW) 2,620 7.5 -4.5°
Maximum altitude 17:00:56 87° 309° (NW) 938 4.0 -5.4°
Drops below altitude 10° 17:07:09 10° 40° (NE) 2,660 5.8 -6.4°
Enters shadow 17:08:39 - 40° (NE) 3,215 6.2 -6.6°
